| time (UTC) | temp F | wind direction | speed knots | gust knots | rain 1hr in | rain 24hr in | rain mn in | humidity % | barometer mb |
| 20260506203853 | 58 | 0.0 | 0.0 | 0.00 | 0.00 | 0.00 | 32 | 1007.5 | |
| 20260506203349 | 58 | 0.0 | 0.0 | 0.00 | 0.00 | 0.00 | 32 | 1007.5 | |
| 20260506202844 | 59 | 0.0 | 0.0 | 0.00 | 0.00 | 0.00 | 31 | 1007.4 | |
| 20260506202339 | 59 | 0.0 | 0.0 | 0.00 | 0.00 | 0.00 | 31 | 1007.3 | |
| 20260506201955 | 59 | 0.0 | 0.0 | 0.00 | 0.00 | 0.00 | 31 | 1007.3 | |
| 20260506201350 | 60 | 180 | 1.7 | 2.6 | 0.00 | 0.00 | 0.00 | 31 | 1007.3 |
| 20260506200826 | 60 | 135 | 2.6 | 4.3 | 0.00 | 0.00 | 0.00 | 31 | 1007.3 |
| 20260506200340 | 60 | 225 | 2.6 | 4.3 | 0.00 | 0.00 | 0.00 | 31 | 1007.1 |
| 20260506195856 | 60 | 180 | 0.9 | 1.7 | 0.00 | 0.00 | 0.00 | 31 | 1007.3 |
| 20260506195312 | 60 | 180 | 1.7 | 3.5 | 0.00 | 0.00 | 0.00 | 31 | 1007.4 |
| 20260506194709 | 60 | 0.0 | 0.0 | 0.00 | 0.00 | 0.00 | 31 | 1007.3 | |
| 20260506194105 | 60 | 0.0 | 0.0 | 0.00 | 0.00 | 0.00 | 31 | 1007.3 | |
| 20260506193522 | 60 | 0.0 | 0.0 | 0.00 | 0.00 | 0.00 | 31 | 1007.2 | |
| 20260506193058 | 60 | 0.0 | 0.0 | 0.00 | 0.00 | 0.00 | 31 | 1007.2 | |
| 20260506192554 | 60 | 225 | 0.0 | 1.7 | 0.00 | 0.00 | 0.00 | 31 | 1007.1 |
| 20260506192050 | 60 | 180 | 0.0 | 2.6 | 0.00 | 0.00 | 0.00 | 31 | 1006.9 |
| 20260506191544 | 60 | 135 | 2.6 | 4.3 | 0.00 | 0.00 | 0.00 | 31 | 1006.9 |
| 20260506191041 | 60 | 225 | 2.6 | 2.6 | 0.00 | 0.00 | 0.00 | 30 | 1007.0 |
| 20260506190536 | 60 | 0.0 | 0.0 | 0.00 | 0.00 | 0.00 | 30 | 1006.9 | |
| 20260506190030 | 61 | 0.0 | 0.0 | 0.00 | 0.00 | 0.00 | 30 | 1006.8 | |
| 20260506185526 | 61 | 180 | 1.7 | 2.6 | 0.00 | 0.00 | 0.00 | 28 | 1006.8 |
| 20260506185021 | 61 | 202 | 2.6 | 2.6 | 0.00 | 0.00 | 0.00 | 26 | 1006.8 |
| 20260506184516 | 62 | 180 | 1.7 | 2.6 | 0.00 | 0.00 | 0.00 | 24 | 1006.9 |
| 20260506184033 | 62 | 180 | 2.6 | 4.3 | 0.00 | 0.00 | 0.00 | 24 | 1006.8 |
| 20260506183409 | 62 | 180 | 2.6 | 2.6 | 0.00 | 0.00 | 0.00 | 22 | 1006.8 |
| 20260506182806 | 63 | 180 | 1.7 | 3.5 | 0.00 | 0.00 | 0.00 | 20 | 1006.8 |
| 20260506182202 | 63 | 0.0 | 0.0 | 0.00 | 0.00 | 0.00 | 20 | 1006.7 | |
| 20260506181758 | 63 | 180 | 2.6 | 3.5 | 0.00 | 0.00 | 0.00 | 20 | 1006.4 |
| 20260506181254 | 64 | 225 | 3.5 | 5.2 | 0.00 | 0.00 | 0.00 | 20 | 1006.5 |
| 20260506180748 | 64 | 225 | 4.3 | 5.2 | 0.00 | 0.00 | 0.00 | 15 | 1006.5 |
| 20260506180243 | 64 | 225 | 5.2 | 7.0 | 0.00 | 0.00 | 0.00 | 15 | 1006.4 |
| 20260506175739 | 65 | 180 | 2.6 | 4.3 | 0.00 | 0.00 | 0.00 | 15 | 1006.4 |
| 20260506175235 | 65 | 225 | 5.2 | 7.8 | 0.00 | 0.00 | 0.00 | 15 | 1006.4 |
| 20260506174730 | 65 | 180 | 5.2 | 7.8 | 0.00 | 0.00 | 0.00 | 15 | 1006.4 |
| 20260506174225 | 65 | 180 | 4.3 | 7.0 | 0.00 | 0.00 | 0.00 | 15 | 1006.1 |
| 20260506173721 | 65 | 225 | 1.7 | 7.0 | 0.00 | 0.00 | 0.00 | 15 | 1006.3 |
| 20260506173216 | 66 | 202 | 5.2 | 6.1 | 0.00 | 0.00 | 0.00 | 15 | 1006.2 |
| 20260506172713 | 66 | 180 | 6.1 | 9.6 | 0.00 | 0.00 | 0.00 | 15 | 1006.3 |
| 20260506172109 | 66 | 180 | 4.3 | 6.1 | 0.00 | 0.00 | 0.00 | 15 | 1006.1 |
| 20260506171506 | 66 | 270 | 4.3 | 6.1 | 0.00 | 0.00 | 0.00 | 15 | 1006.1 |
| 20260506170902 | 66 | 180 | 2.6 | 4.3 | 0.00 | 0.00 | 0.00 | 15 | 1006.2 |
| 20260506170518 | 66 | 180 | 3.5 | 5.2 | 0.00 | 0.00 | 0.00 | 15 | 1006.3 |
| 20260506165953 | 67 | 180 | 4.3 | 5.2 | 0.00 | 0.00 | 0.00 | 15 | 1006.2 |
| 20260506165508 | 67 | 135 | 2.6 | 4.3 | 0.00 | 0.00 | 0.00 | 15 | 1006.2 |
| 20260506164944 | 67 | 180 | 2.6 | 5.2 | 0.00 | 0.00 | 0.00 | 15 | 1006.5 |
| 20260506164441 | 67 | 180 | 6.1 | 8.7 | 0.00 | 0.00 | 0.00 | 15 | 1006.4 |
| 20260506163935 | 67 | 202 | 0.0 | 0.9 | 0.00 | 0.00 | 0.00 | 15 | 1006.4 |
| 20260506163429 | 67 | 180 | 5.2 | 7.8 | 0.00 | 0.00 | 0.00 | 15 | 1006.5 |
| 20260506162925 | 67 | 225 | 2.6 | 3.5 | 0.00 | 0.00 | 0.00 | 15 | 1006.7 |
| 20260506162440 | 67 | 270 | 2.6 | 5.2 | 0.00 | 0.00 | 0.00 | 15 | 1006.7 |
| 20260506161916 | 68 | 202 | 3.5 | 7.8 | 0.00 | 0.00 | 0.00 | 19 | 1006.9 |
| 20260506161433 | 68 | 180 | 3.5 | 5.2 | 0.00 | 0.00 | 0.00 | 19 | 1006.8 |
| 20260506160809 | 68 | 180 | 2.6 | 5.2 | 0.00 | 0.00 | 0.00 | 19 | 1006.7 |
| 20260506160207 | 68 | 180 | 2.6 | 6.1 | 0.00 | 0.00 | 0.00 | 19 | 1006.6 |
| 20260506155605 | 69 | 180 | 4.3 | 7.8 | 0.00 | 0.00 | 0.00 | 19 | 1006.5 |
| 20260506155058 | 69 | 202 | 7.8 | 8.7 | 0.00 | 0.00 | 0.00 | 19 | 1006.5 |
| 20260506154553 | 71 | 270 | 5.2 | 7.0 | 0.00 | 0.00 | 0.00 | 19 | 1006.6 |
| 20260506154049 | 71 | 180 | 6.1 | 7.8 | 0.00 | 0.00 | 0.00 | 19 | 1006.7 |
| 20260506153605 | 71 | 135 | 6.1 | 7.8 | 0.00 | 0.00 | 0.00 | 19 | 1006.6 |
| 20260506153038 | 70 | 180 | 3.5 | 5.2 | 0.00 | 0.00 | 0.00 | 19 | 1006.9 |
| 20260506152534 | 69 | 225 | 5.2 | 7.0 | 0.00 | 0.00 | 0.00 | 19 | 1006.7 |
| 20260506152035 | 68 | 212 | 1.7 | 5.2 | 0.00 | 0.00 | 0.00 | 19 | 1006.6 |
| 20260506151545 | 68 | 225 | 5.2 | 7.0 | 0.00 | 0.00 | 0.00 | 19 | 1006.4 |
| 20260506151021 | 68 | 180 | 7.0 | 9.6 | 0.00 | 0.00 | 0.00 | 19 | 1006.6 |
| 20260506150516 | 69 | 180 | 1.7 | 5.2 | 0.00 | 0.00 | 0.00 | 19 | 1006.6 |
| 20260506150012 | 69 | 225 | 6.1 | 7.8 | 0.00 | 0.00 | 0.00 | 19 | 1006.6 |
| 20260506145410 | 69 | 225 | 3.5 | 6.1 | 0.00 | 0.00 | 0.00 | 19 | 1006.7 |
| 20260506144806 | 69 | 180 | 5.2 | 7.8 | 0.00 | 0.00 | 0.00 | 19 | 1006.5 |
| 20260506144202 | 70 | 270 | 3.5 | 5.2 | 0.00 | 0.00 | 0.00 | 19 | 1006.9 |
| 20260506143657 | 70 | 225 | 5.2 | 7.8 | 0.00 | 0.00 | 0.00 | 19 | 1006.7 |
| 20260506143153 | 71 | 0.0 | 0.0 | 0.00 | 0.00 | 0.00 | 19 | 1006.8 | |
| 20260506142648 | 70 | 225 | 5.2 | 7.8 | 0.00 | 0.00 | 0.00 | 19 | 1007.1 |
| 20260506142204 | 70 | 180 | 3.5 | 5.2 | 0.00 | 0.00 | 0.00 | 19 | 1006.8 |
| 20260506141644 | 70 | 180 | 9.6 | 11.3 | 0.00 | 0.00 | 0.00 | 19 | 1007.1 |
| 20260506141134 | 70 | 0.0 | 0.9 | 0.00 | 0.00 | 0.00 | 19 | 1006.9 | |
| 20260506140630 | 71 | 225 | 5.2 | 7.0 | 0.00 | 0.00 | 0.00 | 19 | 1006.9 |
| 20260506140125 | 71 | 225 | 5.2 | 7.0 | 0.00 | 0.00 | 0.00 | 19 | 1006.8 |
| 20260506135620 | 71 | 225 | 2.6 | 6.1 | 0.00 | 0.00 | 0.00 | 19 | 1006.9 |
| 20260506135116 | 70 | 180 | 1.7 | 2.6 | 0.00 | 0.00 | 0.00 | 19 | 1006.9 |
| 20260506134613 | 70 | 180 | 7.8 | 13.0 | 0.00 | 0.00 | 0.00 | 19 | 1006.8 |
| 20260506134010 | 71 | 292 | 7.8 | 10.4 | 0.00 | 0.00 | 0.00 | 19 | 1007.1 |
| 20260506133406 | 69 | 225 | 7.8 | 9.6 | 0.00 | 0.00 | 0.00 | 19 | 1007.1 |
| 20260506132823 | 70 | 270 | 10.4 | 14.8 | 0.00 | 0.00 | 0.00 | 19 | 1007.3 |
| 20260506132359 | 70 | 270 | 7.8 | 10.4 | 0.00 | 0.00 | 0.00 | 19 | 1007.3 |
| 20260506131855 | 70 | 225 | 5.2 | 7.0 | 0.00 | 0.00 | 0.00 | 19 | 1007.4 |
| 20260506131350 | 70 | 180 | 2.6 | 4.3 | 0.00 | 0.00 | 0.00 | 19 | 1007.3 |
| 20260506130845 | 70 | 270 | 7.8 | 10.4 | 0.00 | 0.00 | 0.00 | 19 | 1007.5 |
| 20260506130343 | 71 | 225 | 10.4 | 15.6 | 0.00 | 0.00 | 0.00 | 19 | 1007.2 |
| 20260506125836 | 71 | 225 | 7.8 | 13.0 | 0.00 | 0.00 | 0.00 | 19 | 1007.3 |
| 20260506125331 | 70 | 225 | 8.7 | 10.4 | 0.00 | 0.00 | 0.00 | 19 | 1007.4 |
| 20260506124827 | 70 | 180 | 7.8 | 10.4 | 0.00 | 0.00 | 0.00 | 19 | 1007.3 |
| 20260506124343 | 70 | 180 | 10.4 | 11.3 | 0.00 | 0.00 | 0.00 | 19 | 1007.3 |
| 20260506123817 | 71 | 225 | 5.2 | 7.8 | 0.00 | 0.00 | 0.00 | 19 | 1007.6 |
| 20260506123334 | 72 | 180 | 7.0 | 8.7 | 0.00 | 0.00 | 0.00 | 19 | 1007.4 |
| 20260506122710 | 74 | 180 | 6.1 | 8.7 | 0.00 | 0.00 | 0.00 | 19 | 1007.3 |
| 20260506122107 | 73 | 225 | 7.8 | 8.7 | 0.00 | 0.00 | 0.00 | 19 | 1007.4 |
| 20260506121503 | 74 | 247 | 5.2 | 7.8 | 0.00 | 0.00 | 0.00 | 19 | 1007.4 |
| 20260506121042 | 73 | 270 | 6.1 | 10.4 | 0.00 | 0.00 | 0.00 | 19 | 1007.5 |
| 20260506120455 | 75 | 225 | 4.3 | 7.0 | 0.00 | 0.00 | 0.00 | 19 | 1007.3 |
| 20260506115950 | 75 | 225 | 5.2 | 8.7 | 0.00 | 0.00 | 0.00 | 19 | 1007.5 |
| 20260506115446 | 76 | 180 | 5.2 | 8.7 | 0.00 | 0.00 | 0.00 | 19 | 1007.3 |
| 20260506114941 | 75 | 225 | 2.6 | 5.2 | 0.00 | 0.00 | 0.00 | 19 | 1007.6 |
| 20260506114617 | 75 | 270 | 6.1 | 7.8 | 0.00 | 0.00 | 0.00 | 19 | 1007.7 |
| 20260506113934 | 75 | 315 | 7.8 | 8.7 | 0.00 | 0.00 | 0.00 | 19 | 1007.9 |
| 20260506113427 | 74 | 225 | 6.1 | 8.7 | 0.00 | 0.00 | 0.00 | 19 | 1007.9 |
| 20260506112923 | 73 | 225 | 7.8 | 10.4 | 0.00 | 0.00 | 0.00 | 19 | 1007.6 |
| 20260506112418 | 73 | 180 | 7.8 | 10.4 | 0.00 | 0.00 | 0.00 | 19 | 1007.9 |
| 20260506111918 | 72 | 270 | 8.7 | 11.3 | 0.00 | 0.00 | 0.00 | 19 | 1007.9 |
| 20260506111312 | 71 | 180 | 5.2 | 7.8 | 0.00 | 0.00 | 0.00 | 19 | 1007.9 |
| 20260506110727 | 71 | 270 | 7.8 | 9.6 | 0.00 | 0.00 | 0.00 | 19 | 1007.9 |
| 20260506110105 | 71 | 270 | 7.8 | 10.4 | 0.00 | 0.00 | 0.00 | 19 | 1007.9 |
| 20260506105559 | 71 | 225 | 3.5 | 5.2 | 0.00 | 0.00 | 0.00 | 19 | 1007.9 |
| 20260506105115 | 71 | 180 | 7.0 | 8.7 | 0.00 | 0.00 | 0.00 | 19 | 1007.6 |
| 20260506104610 | 72 | 225 | 8.7 | 13.0 | 0.00 | 0.00 | 0.00 | 19 | 1008.0 |
| 20260506104106 | 73 | 270 | 6.1 | 9.6 | 0.00 | 0.00 | 0.00 | 19 | 1007.7 |
| 20260506103541 | 74 | 270 | 5.2 | 7.8 | 0.00 | 0.00 | 0.00 | 19 | 1007.7 |
| 20260506103037 | 75 | 315 | 7.8 | 10.4 | 0.00 | 0.00 | 0.00 | 19 | 1007.5 |
| 20260506102532 | 76 | 225 | 7.8 | 10.4 | 0.00 | 0.00 | 0.00 | 19 | 1007.7 |
| 20260506102029 | 76 | 180 | 7.0 | 9.6 | 0.00 | 0.00 | 0.00 | 19 | 1007.6 |
| 20260506101523 | 76 | 180 | 12.2 | 13.0 | 0.00 | 0.00 | 0.00 | 19 | 1007.4 |
| 20260506101019 | 76 | 180 | 6.1 | 10.4 | 0.00 | 0.00 | 0.00 | 19 | 1007.4 |
| 20260506100515 | 76 | 180 | 6.1 | 8.7 | 0.00 | 0.00 | 0.00 | 19 | 1007.6 |
| 20260506095910 | 76 | 225 | 7.0 | 12.2 | 0.00 | 0.00 | 0.00 | 19 | 1007.6 |
| 20260506095307 | 75 | 180 | 5.2 | 7.8 | 0.00 | 0.00 | 0.00 | 19 | 1007.7 |
| 20260506094723 | 75 | 180 | 10.4 | 11.3 | 0.00 | 0.00 | 0.00 | 19 | 1007.6 |
| 20260506094159 | 75 | 180 | 2.6 | 5.2 | 0.00 | 0.00 | 0.00 | 19 | 1007.6 |
| 20260506093655 | 75 | 225 | 2.6 | 4.3 | 0.00 | 0.00 | 0.00 | 19 | 1007.7 |
| 20260506093150 | 75 | 202 | 5.2 | 7.0 | 0.00 | 0.00 | 0.00 | 19 | 1007.5 |
| 20260506092645 | 74 | 225 | 5.2 | 7.8 | 0.00 | 0.00 | 0.00 | 19 | 1007.7 |
| 20260506092141 | 74 | 180 | 5.2 | 7.8 | 0.00 | 0.00 | 0.00 | 19 | 1007.7 |
| 20260506091657 | 74 | 180 | 7.0 | 7.8 | 0.00 | 0.00 | 0.00 | 19 | 1007.6 |
| 20260506091132 | 75 | 180 | 7.8 | 10.4 | 0.00 | 0.00 | 0.00 | 19 | 1007.7 |
| 20260506090627 | 74 | 0.0 | 0.0 | 0.00 | 0.00 | 0.00 | 19 | 1007.7 | |
| 20260506090122 | 74 | 180 | 7.8 | 13.0 | 0.00 | 0.00 | 0.00 | 19 | 1008.0 |
| 20260506085618 | 73 | 225 | 5.2 | 7.0 | 0.00 | 0.00 | 0.00 | 19 | 1007.7 |
| 20260506085114 | 73 | 180 | 8.7 | 12.2 | 0.00 | 0.00 | 0.00 | 19 | 1007.9 |
| 20260506084510 | 73 | 225 | 6.1 | 7.8 | 0.00 | 0.00 | 0.00 | 19 | 1007.9 |
| 20260506083907 | 73 | 225 | 5.2 | 7.8 | 0.00 | 0.00 | 0.00 | 19 | 1007.7 |
| 20260506083303 | 73 | 247 | 5.2 | 7.0 | 0.00 | 0.00 | 0.00 | 19 | 1007.9 |
| 20260506082900 | 73 | 270 | 6.1 | 7.8 | 0.00 | 0.00 | 0.00 | 19 | 1007.9 |
| 20260506082355 | 73 | 180 | 9.6 | 10.4 | 0.00 | 0.00 | 0.00 | 19 | 1007.9 |
| 20260506081851 | 72 | 270 | 2.6 | 5.2 | 0.00 | 0.00 | 0.00 | 19 | 1007.9 |
| 20260506081348 | 72 | 270 | 7.8 | 10.4 | 0.00 | 0.00 | 0.00 | 19 | 1008.0 |
| 20260506080842 | 72 | 202 | 5.2 | 7.8 | 0.00 | 0.00 | 0.00 | 19 | 1008.0 |
| 20260506080337 | 71 | 225 | 5.2 | 7.8 | 0.00 | 0.00 | 0.00 | 19 | 1008.0 |
| 20260506073313 | 69 | 180 | 5.2 | 7.8 | 0.00 | 0.00 | 0.00 | 19 | 1008.0 |
| 20260506072709 | 69 | 180 | 7.8 | 10.4 | 0.00 | 0.00 | 0.00 | 19 | 1007.9 |
| 20260506072125 | 69 | 180 | 6.1 | 10.4 | 0.00 | 0.00 | 0.00 | 19 | 1007.9 |
| 20260506071501 | 68 | 180 | 7.0 | 10.4 | 0.00 | 0.00 | 0.00 | 19 | 1007.6 |
| 20260506071058 | 68 | 270 | 7.0 | 9.6 | 0.00 | 0.00 | 0.00 | 19 | 1008.0 |
| 20260506070553 | 68 | 225 | 5.2 | 8.7 | 0.00 | 0.00 | 0.00 | 19 | 1008.0 |
| 20260506062041 | 65 | 315 | 0.9 | 2.6 | 0.00 | 0.00 | 0.00 | 20 | 1008.0 |
| 20260506061536 | 65 | 0.0 | 0.0 | 0.00 | 0.00 | 0.00 | 20 | 1008.0 | |
| 20260506061032 | 64 | 0.0 | 0.0 | 0.00 | 0.00 | 0.00 | 20 | 1008.0 | |
| 20260506060527 | 64 | 225 | 1.7 | 2.6 | 0.00 | 0.00 | 0.00 | 15 | 1007.9 |
| 20260506051246 | 58 | 270 | 1.7 | 2.6 | 0.00 | 0.00 | 0.00 | 28 | 1007.9 |
| 20260506050744 | 57 | 225 | 1.7 | 2.6 | 0.00 | 0.00 | 0.00 | 30 | 1008.1 |
| 20260506050237 | 57 | 225 | 2.6 | 4.3 | 0.00 | 0.00 | 0.00 | 30 | 1007.9 |
| 20260506044724 | 58 | 0.0 | 0.0 | 0.00 | 0.00 | 0.00 | 28 | 1008.0 | |
| 20260506044219 | 58 | 0.0 | 0.0 | 0.00 | 0.00 | 0.00 | 30 | 1007.9 | |
| 20260506043715 | 57 | 180 | 3.5 | 5.2 | 0.00 | 0.00 | 0.00 | 30 | 1007.7 |
| 20260506043111 | 56 | 225 | 2.6 | 4.3 | 0.00 | 0.00 | 0.00 | 31 | 1008.1 |
| 20260506042508 | 55 | 270 | 2.6 | 3.5 | 0.00 | 0.00 | 0.00 | 32 | 1007.9 |
| 20260506041935 | 54 | 0.0 | 0.0 | 0.00 | 0.00 | 0.00 | 32 | 1007.6 | |
| 20260506041422 | 54 | 0.0 | 0.0 | 0.00 | 0.00 | 0.00 | 32 | 1007.9 | |
| 20260506040856 | 54 | 180 | 0.0 | 1.7 | 0.00 | 0.00 | 0.00 | 35 | 1007.7 |
| 20260506040352 | 53 | 202 | 0.0 | 2.6 | 0.00 | 0.00 | 0.00 | 36 | 1007.7 |
| 20260506040028 | 53 | 0.0 | 0.0 | 0.00 | 0.00 | 0.00 | 35 | 1007.7 | |
| 20260506035342 | 53 | 0.0 | 0.0 | 0.00 | 0.00 | 0.00 | 35 | 1007.6 | |
| 20260506034838 | 53 | 0.0 | 0.0 | 0.00 | 0.00 | 0.00 | 35 | 1007.6 | |
| 20260506034334 | 54 | 225 | 1.7 | 2.6 | 0.00 | 0.00 | 0.00 | 35 | 1007.7 |
| 20260506033829 | 53 | 202 | 1.7 | 2.6 | 0.00 | 0.00 | 0.00 | 35 | 1007.6 |
| 20260506033325 | 53 | 270 | 2.6 | 3.5 | 0.00 | 0.00 | 0.00 | 36 | 1007.5 |
| 20260506032820 | 53 | 225 | 2.6 | 3.5 | 0.00 | 0.00 | 0.00 | 38 | 1007.4 |
| 20260506032317 | 52 | 0.0 | 0.0 | 0.00 | 0.00 | 0.00 | 39 | 1007.6 | |
| 20260506031832 | 52 | 0.0 | 0.0 | 0.00 | 0.00 | 0.00 | 40 | 1007.5 | |
| 20260506031208 | 51 | 0.0 | 0.0 | 0.00 | 0.00 | 0.00 | 41 | 1007.4 | |
| 20260506030605 | 51 | 0.0 | 0.0 | 0.00 | 0.00 | 0.00 | 42 | 1007.6 | |
| 20260506030002 | 50 | 0.0 | 0.0 | 0.00 | 0.00 | 0.00 | 43 | 1007.5 | |
| 20260506025619 | 50 | 0.0 | 0.0 | 0.00 | 0.00 | 0.00 | 43 | 1007.6 | |
| 20260506025054 | 49 | 0.0 | 0.0 | 0.00 | 0.00 | 0.00 | 43 | 1007.4 | |
| 20260506024549 | 49 | 0.0 | 0.0 | 0.00 | 0.00 | 0.00 | 42 | 1007.4 | |
| 20260506024044 | 49 | 0.0 | 0.0 | 0.00 | 0.00 | 0.00 | 42 | 1007.4 | |
| 20260506023540 | 49 | 0.0 | 0.0 | 0.00 | 0.00 | 0.00 | 41 | 1007.3 | |
| 20260506023035 | 49 | 0.0 | 0.0 | 0.00 | 0.00 | 0.00 | 41 | 1007.3 | |
| 20260506022551 | 49 | 0.0 | 0.0 | 0.00 | 0.00 | 0.00 | 40 | 1007.3 | |
| 20260506022026 | 50 | 0.0 | 0.0 | 0.00 | 0.00 | 0.00 | 40 | 1007.3 | |
| 20260506021522 | 50 | 0.0 | 0.0 | 0.00 | 0.00 | 0.00 | 40 | 1007.3 | |
| 20260506021017 | 50 | 0.0 | 0.0 | 0.00 | 0.00 | 0.00 | 40 | 1007.3 | |
| 20260506020513 | 51 | 0.0 | 0.0 | 0.00 | 0.00 | 0.00 | 40 | 1007.3 | |
| 20260506015910 | 51 | 0.0 | 0.0 | 0.00 | 0.00 | 0.00 | 40 | 1007.2 | |
| 20260506015306 | 51 | 0.0 | 0.0 | 0.00 | 0.00 | 0.00 | 40 | 1007.1 | |
| 20260506014743 | 51 | 0.0 | 0.0 | 0.00 | 0.00 | 0.00 | 40 | 1007.3 | |
| 20260506014300 | 51 | 0.0 | 0.0 | 0.00 | 0.00 | 0.00 | 40 | 1007.3 | |
| 20260506013755 | 51 | 0.0 | 0.0 | 0.00 | 0.00 | 0.00 | 41 | 1007.3 | |
| 20260506013251 | 50 | 0.0 | 0.0 | 0.00 | 0.00 | 0.00 | 39 | 1007.4 | |
| 20260506012747 | 51 | 0.0 | 0.0 | 0.00 | 0.00 | 0.00 | 35 | 1007.4 | |
| 20260506012242 | 52 | 0.0 | 0.0 | 0.00 | 0.00 | 0.00 | 33 | 1007.4 | |
| 20260506011737 | 52 | 0.0 | 0.0 | 0.00 | 0.00 | 0.00 | 34 | 1007.3 | |
| 20260506011232 | 53 | 0.0 | 0.0 | 0.00 | 0.00 | 0.00 | 33 | 1007.3 | |
| 20260506010733 | 53 | 0.0 | 0.0 | 0.00 | 0.00 | 0.00 | 33 | 1007.3 | |
| 20260506010303 | 53 | 0.0 | 0.0 | 0.00 | 0.00 | 0.00 | 32 | 1007.3 | |
| 20260506005719 | 54 | 0.0 | 0.0 | 0.00 | 0.00 | 0.00 | 31 | 1007.2 | |
| 20260506005234 | 54 | 0.0 | 0.0 | 0.00 | 0.00 | 0.00 | 30 | 1007.2 | |
| 20260506004631 | 54 | 180 | 2.6 | 4.3 | 0.00 | 0.00 | 0.00 | 30 | 1007.3 |
| 20260506004007 | 55 | 0.0 | 0.0 | 0.00 | 0.00 | 0.00 | 30 | 1007.4 | |
| 20260506003424 | 55 | 225 | 2.6 | 3.5 | 0.00 | 0.00 | 0.00 | 30 | 1007.2 |
| 20260506002921 | 55 | 180 | 0.9 | 1.7 | 0.00 | 0.00 | 0.00 | 30 | 1007.2 |
| 20260506002416 | 55 | 180 | 2.6 | 4.3 | 0.00 | 0.00 | 0.00 | 30 | 1007.4 |
| 20260506001850 | 56 | 225 | 2.6 | 4.3 | 0.00 | 0.00 | 0.00 | 28 | 1007.3 |
| 20260506001406 | 56 | 247 | 2.6 | 4.3 | 0.00 | 0.00 | 0.00 | 28 | 1007.4 |
| 20260506000841 | 56 | 270 | 3.5 | 5.2 | 0.00 | 0.00 | 0.00 | 26 | 1007.3 |
| 20260506000336 | 56 | 180 | 4.3 | 5.2 | 0.00 | 0.00 | 0.00 | 28 | 1007.3 |
| 20260505235852 | 56 | 225 | 4.3 | 5.2 | 0.00 | 0.00 | 0.00 | 28 | 1007.4 |
| 20260505235347 | 56 | 225 | 1.7 | 2.6 | 0.00 | 0.00 | 0.00 | 28 | 1007.4 |
| 20260505234822 | 56 | 225 | 6.1 | 7.8 | 0.00 | 0.00 | 0.00 | 28 | 1007.4 |
| 20260505234317 | 56 | 180 | 4.3 | 5.2 | 0.00 | 0.00 | 0.00 | 28 | 1007.5 |
| 20260505233833 | 56 | 180 | 6.1 | 7.8 | 0.00 | 0.00 | 0.00 | 30 | 1007.7 |
| 20260505233210 | 56 | 135 | 4.3 | 5.2 | 0.00 | 0.00 | 0.00 | 30 | 1007.6 |
| 20260505232606 | 56 | 225 | 2.6 | 5.2 | 0.00 | 0.00 | 0.00 | 30 | 1008.0 |
| 20260505232022 | 56 | 180 | 5.2 | 7.0 | 0.00 | 0.00 | 0.00 | 30 | 1008.1 |
| 20260505231458 | 55 | 135 | 2.6 | 2.6 | 0.00 | 0.00 | 0.00 | 30 | 1007.9 |
| 20260505230954 | 55 | 180 | 2.6 | 4.3 | 0.00 | 0.00 | 0.00 | 30 | 1008.0 |
| 20260505230449 | 55 | 225 | 2.6 | 5.2 | 0.00 | 0.00 | 0.00 | 30 | 1008.1 |
| 20260505225944 | 55 | 180 | 1.7 | 2.6 | 0.00 | 0.00 | 0.00 | 30 | 1008.1 |
| 20260505225440 | 55 | 225 | 0.0 | 1.7 | 0.00 | 0.00 | 0.00 | 28 | 1008.1 |
| 20260505224935 | 56 | 0.0 | 0.0 | 0.00 | 0.00 | 0.00 | 26 | 1008.4 | |
| 20260505224431 | 56 | 180 | 3.5 | 5.2 | 0.00 | 0.00 | 0.00 | 26 | 1008.1 |
| 20260505223926 | 56 | 180 | 1.7 | 2.6 | 0.00 | 0.00 | 0.00 | 26 | 1008.3 |
| 20260505223422 | 57 | 247 | 3.5 | 5.2 | 0.00 | 0.00 | 0.00 | 26 | 1008.2 |
| 20260505222917 | 57 | 225 | 1.7 | 3.5 | 0.00 | 0.00 | 0.00 | 24 | 1008.3 |
| 20260505222413 | 57 | 180 | 5.2 | 7.8 | 0.00 | 0.00 | 0.00 | 24 | 1007.9 |
| 20260505221810 | 57 | 225 | 3.5 | 5.2 | 0.00 | 0.00 | 0.00 | 24 | 1008.0 |
| 20260505221207 | 57 | 180 | 3.5 | 5.2 | 0.00 | 0.00 | 0.00 | 24 | 1008.2 |
| 20260505220603 | 58 | 180 | 5.2 | 7.8 | 0.00 | 0.00 | 0.00 | 22 | 1008.1 |
| 20260505220100 | 58 | 180 | 5.2 | 7.8 | 0.00 | 0.00 | 0.00 | 22 | 1008.0 |
| 20260505215555 | 58 | 157 | 5.2 | 7.8 | 0.00 | 0.00 | 0.00 | 22 | 1008.2 |
| 20260505215050 | 58 | 270 | 4.3 | 5.2 | 0.00 | 0.00 | 0.00 | 20 | 1008.2 |
| 20260505214546 | 58 | 270 | 7.8 | 10.4 | 0.00 | 0.00 | 0.00 | 20 | 1008.0 |
| 20260505214101 | 58 | 225 | 5.2 | 7.8 | 0.00 | 0.00 | 0.00 | 22 | 1008.2 |
| 20260505213536 | 58 | 270 | 7.8 | 11.3 | 0.00 | 0.00 | 0.00 | 22 | 1008.1 |
| 20260505213052 | 58 | 270 | 2.6 | 5.2 | 0.00 | 0.00 | 0.00 | 22 | 1008.2 |
| 20260505212528 | 57 | 180 | 2.6 | 5.2 | 0.00 | 0.00 | 0.00 | 22 | 1008.1 |
| 20260505212020 | 57 | 180 | 1.7 | 3.5 | 0.00 | 0.00 | 0.00 | 22 | 1008.4 |
| 20260505211516 | 57 | 180 | 1.7 | 2.6 | 0.00 | 0.00 | 0.00 | 22 | 1008.3 |
| 20260505211013 | 57 | 225 | 3.5 | 5.2 | 0.00 | 0.00 | 0.00 | 22 | 1008.4 |
| 20260505210409 | 57 | 270 | 2.6 | 4.3 | 0.00 | 0.00 | 0.00 | 22 | 1008.4 |
| 20260505205805 | 57 | 225 | 3.5 | 5.2 | 0.00 | 0.00 | 0.00 | 22 | 1008.4 |
| 20260505205201 | 57 | 180 | 3.5 | 5.2 | 0.00 | 0.00 | 0.00 | 22 | 1008.4 |
| 20260505204717 | 57 | 225 | 0.0 | 1.7 | 0.00 | 0.00 | 0.00 | 24 | 1008.2 |
| 20260505204152 | 57 | 180 | 4.3 | 5.2 | 0.00 | 0.00 | 0.00 | 24 | 1008.2 |